ITAMSAT 1 - Orbit

View from above orbital plane
View from above orbital plane
View from above satellite
View from above satellite

Ground track
Ground track

The orbit data is extracted from the following two-line orbital elements,

1 22826U 93061D   13139.92963804  .00000112  00000-0  60651-4 0  1445
2 22826 098.6108 084.5481 0008902 012.5518 027.4689 14.29845568 24728
Epoch (UTC): 19 May 2013 22:18:40
Eccentricity: 0.0008902
inclination: 98.6108°
perigee height: 786 km
apogee height: 798 km
right ascension of ascending node: 84.5481°
argument of perigee: 12.5518°
revolutions per day: 14.29845568
mean anomaly at epoch: 27.4689°
orbit number at epoch: 2472

The dashed part of the orbit path shows where the satellite is in the earth's shadow,  

Developed and maintained by Chris Peat, Heavens-Above GmbH. Please read the updated FAQ before sending e-mail. Imprint. DLR